Location: Granada Hills
(34.2650°N, 118.5220°W)
Time: 20:30:56
(UTC-08:00)

deb Kosmos-1763 - Visible Passes

Search period start: 21 February 2017 00:00
Search period end: 03 March 2017 00:00
Orbit: 502 x 515 km, 74.0° (Epoch: 21 February)

Date Brightness Start Highest point End Pass type
(mag) Time Alt. Az. Time Alt. Az. Time Alt. Az.
21 Feb 4.1 05:10:50 23° NNW 05:13:01 59° WSW 05:16:45 10° S visible
21 Feb 6.2 18:55:06 10° SW 18:58:27 29° WNW 19:01:49 10° N visible
22 Feb 4.0 04:55:20 70° W 04:55:27 71° WSW 04:59:13 10° S visible
22 Feb 5.9 18:37:22 10° SW 18:40:51 34° WNW 18:44:20 10° N visible
23 Feb 5.7 04:39:56 26° SSE 04:39:56 26° SSE 04:41:40 10° SSE visible
23 Feb 5.6 18:19:38 10° SW 18:23:14 40° WNW 18:26:50 10° N visible
